This is the latest recevied weather packets stored in our database for station/object DG1ROH. If no packets are shown the sender has not sent any weather packets the latest 10 day(s).
| Time | Temp. | Humidity | Pressure | Rain* | Wind** | Luminosity | Snow |
|---|---|---|---|---|---|---|---|
| 1778341149 | 16.11° C | 63% | 1018.9 hPa | 0 mm | - | 144 W/m² | - |
| 1778341028 | 16.11° C | 61% | 1019 hPa | 0 mm | - | 144 W/m² | - |
| 1778340911 | 15.56° C | 59% | 1019.1 hPa | 0 mm | - | 153 W/m² | - |
| 1778340785 | 15.56° C | 59% | 1019.1 hPa | 0 mm | - | 155 W/m² | - |
| 1778340664 | 15.56° C | 58% | 1019.1 hPa | 0 mm | - | 153 W/m² | - |
| 1778340544 | 16.11° C | 59% | 1019.2 hPa | 0 mm | - | 155 W/m² | - |
| 1778340425 | 16.11° C | 59% | 1019.2 hPa | 0 mm | - | 153 W/m² | - |
| 1778340305 | 16.11° C | 62% | 1019.2 hPa | 0 mm | - | 149 W/m² | - |
| 1778340185 | 16.11° C | 59% | 1019.2 hPa | 0 mm | - | 144 W/m² | - |
| 1778340065 | 16.11° C | 60% | 1019.3 hPa | 0 mm | - | 144 W/m² | - |
| 1778339944 | 16.11° C | 61% | 1019.3 hPa | 0 mm | - | 146 W/m² | - |
| 1778339825 | 16.11° C | 60% | 1019.3 hPa | 0 mm | - | 148 W/m² | - |
| 1778339704 | 16.11° C | 60% | 1019.2 hPa | 0 mm | - | 148 W/m² | - |
| 1778339585 | 16.11° C | 59% | 1019.3 hPa | 0 mm | - | 149 W/m² | - |
| 1778339464 | 16.11° C | 60% | 1019.2 hPa | 0 mm | - | 155 W/m² | - |
| 1778339344 | 16.11° C | 62% | 1019.2 hPa | 0 mm | - | 160 W/m² | - |
| 1778339225 | 15.56° C | 60% | 1019.2 hPa | 0 mm | - | 162 W/m² | - |
| 1778339104 | 15.56° C | 60% | 1019.2 hPa | 0 mm | - | 169 W/m² | - |
| 1778338985 | 15.56° C | 62% | 1019.3 hPa | 0 mm | - | 174 W/m² | - |
| 1778338865 | 15.56° C | 59% | 1019.2 hPa | 0 mm | - | 174 W/m² | - |
| 1778338744 | 15.56° C | 59% | 1019.2 hPa | 0 mm | - | 167 W/m² | - |
| 1778338625 | 15.56° C | 59% | 1019.3 hPa | 0 mm | - | 160 W/m² | - |
| 1778338505 | 15.56° C | 59% | 1019.2 hPa | 0 mm | - | 155 W/m² | - |
| 1778338385 | 16.11° C | 59% | 1019.2 hPa | 0 mm | - | 151 W/m² | - |
| 1778338265 | 16.11° C | 62% | 1019.2 hPa | 0 mm | - | 148 W/m² | - |
* Rain latest hour (hover to see other rain measurements)
** Current wind speed in m/s (hover to see current wind gust speed)